Torna al catalogo

FENGYUN 1C DEB

AttivoPO
NORAD 30926·DEBRIS·🇨🇳 China

Lanciato May 10, 1999 da Taiyuan Satellite Launch Center

Loading…

Prossimi Passaggi (prossime 24 ore)

TLE

AggiornatoSource: Space-Track

Epoca: Sep 14, 2026, 09:04 UTC

1 30926U 99025AZQ 26257.37793296  .00001853  00000-0  15067-3 0  9992
2 30926  98.8350 235.3574 0157206 213.6185 145.4981 14.92025571 48742

Traccia FENGYUN 1C DEB in tempo reale con AllMySat

Download on the App Store